Location: Unspecified
(0.0000°N, 0.0000°E)
Time: 12:21:58
(UTC+00:00)

deb Explorer IX - All Passes

Search period start: 05 May 2016 00:00
Search period end: 15 May 2016 00:00
Orbit: 548 x 1136 km, 38.8° (Epoch: 03 May)

Date Brightness Start Highest point End Pass type
(mag) Time Alt. Az. Time Alt. Az. Time Alt. Az.
05 May - 03:35:58 10° NNW 03:40:56 41° NE 03:45:14 10° ESE visible
05 May - 05:24:36 10° W 05:28:01 20° SW 05:31:12 10° S visible
05 May - 14:32:07 10° S 14:36:34 22° SE 14:41:30 10° E daylight
05 May - 16:17:44 10° SW 16:24:05 71° NW 16:31:18 10° NE daylight
05 May - 18:08:32 10° WNW 18:12:23 15° NW 18:16:23 10° N daylight
06 May - 03:18:58 10° NW 03:24:12 48° NE 03:28:42 10° ESE visible
06 May - 05:08:04 10° W 05:11:17 18° SW 05:14:17 10° S visible
06 May - 14:15:12 10° S 14:19:44 23° SE 14:24:48 10° E daylight
06 May - 16:01:03 10° WSW 16:07:13 63° NW 16:14:17 10° NE daylight
06 May - 17:52:25 10° WNW 17:55:35 13° NW 17:58:51 10° N daylight
07 May - 03:01:58 10° NW 03:07:28 57° NE 03:12:08 10° ESE visible
07 May - 04:51:32 10° W 04:54:32 16° SW 04:57:20 10° S visible
07 May - 13:58:18 10° SSW 14:02:53 25° SE 14:08:05 10° E daylight
07 May - 15:44:23 10° WSW 15:50:21 56° NW 15:57:14 10° NE daylight
07 May - 17:36:33 10° NW 17:38:47 12° NNW 17:41:05 10° NNW daylight
08 May - 01:01:08 10° NNE 01:02:37 11° NNE 01:04:03 10° NE night (unlit)
08 May - 02:44:58 10° NW 02:50:42 66° NE 02:55:33 10° ESE night (unlit)
08 May - 04:35:04 10° WSW 04:37:47 14° SW 04:40:20 10° S visible
08 May - 13:41:26 10° SSW 13:46:03 28° SE 13:51:18 10° E daylight
08 May - 15:27:45 10° WSW 15:33:30 50° NW 15:40:08 10° NE daylight
09 May - 00:43:08 10° N 00:45:53 13° NNE 00:48:28 10° ENE night (unlit)
09 May - 02:27:58 10° NW 02:33:56 76° NE 02:38:55 10° SE night (unlit)
09 May - 04:18:38 10° WSW 04:21:01 13° SW 04:23:15 10° SSW visible
09 May - 13:24:35 10° SSW 13:29:13 30° SE 13:34:31 10° ENE daylight
09 May - 15:11:09 10° WSW 15:16:39 44° NW 15:23:02 10° NNE daylight
10 May - 00:25:32 10° N 00:29:07 15° NE 00:32:26 10° ENE night (unlit)
10 May - 02:10:59 10° NW 02:17:07 86° NE 02:22:15 10° SE night (unlit)
10 May - 04:02:18 10° WSW 04:04:14 12° SW 04:06:05 10° SSW night (unlit)
10 May - 13:07:45 10° SSW 13:12:23 33° SE 13:17:43 10° ENE daylight
10 May - 14:54:34 10° WSW 14:59:49 38° NW 15:05:55 10° NNE daylight
11 May - 00:08:04 10° N 00:12:20 18° NE 00:16:15 10° ENE night (unlit)
11 May - 01:54:00 10° NW 02:00:17 84° SW 02:05:34 10° SE night (unlit)
11 May - 03:46:08 10° WSW 03:47:26 11° SW 03:48:43 10° SSW night (unlit)
11 May - 12:50:56 10° SSW 12:55:33 36° SE 13:00:54 10° ENE daylight
11 May - 14:38:02 10° WSW 14:43:01 33° NW 14:48:45 10° NNE daylight
11 May - 23:50:41 10° N 23:55:31 20° NE 23:59:55 10° E night (unlit)
12 May - 01:37:01 10° NW 01:43:27 75° SW 01:48:50 10° SE night (unlit)
12 May - 12:34:08 10° SSW 12:38:43 40° SE 12:44:03 10° ENE daylight
12 May - 14:21:31 10° W 14:26:12 29° NW 14:31:34 10° NNE daylight
12 May - 23:33:22 10° NNW 23:38:42 23° NE 23:43:31 10° E night (unlit)
13 May - 01:20:02 10° NW 01:26:34 67° SW 01:32:05 10° SE night (unlit)
13 May - 12:17:21 10° SSW 12:21:54 45° SE 12:27:11 10° ENE daylight
13 May - 14:05:03 10° W 14:09:24 25° NW 14:14:20 10° NNE daylight
13 May - 23:16:06 10° NNW 23:21:50 26° NE 23:27:02 10° E night (unlit)
14 May - 01:03:04 10° WNW 01:09:41 60° SW 01:15:18 10° SE night (unlit)
14 May - 12:00:34 10° SSW 12:05:05 51° SE 12:10:20 10° ENE daylight
14 May - 13:48:38 10° W 13:52:36 22° NW 13:57:04 10° NNE daylight
14 May - 22:58:51 10° NNW 23:04:58 29° NE 23:10:29 10° E night (unlit)
